Regional Weather Roundup
Issued by NWS

Home | Current Version | Previous Version | Text Only | Print | Product List | Glossary On
Versions: 1 2 3 4 5 6 7 8 9 10 11 12 13 14 15 16 17 18 19 20 21 22 23 24 25 26 27
000
ASUS45 KPSR 221910
RWRAZ

ARIZONA HOURLY REGIONAL WEATHER ROUNDUP
NATIONAL WEATHER SERVICE PHOENIX AZ
1200 PM MST THU FEB 22 2018

NOTE: FAIR INDICATES FEW OR NO CLOUDS BELOW 12,000 FEET WITH NO
SIGNIFICANT WEATHER AND/OR OBSTRUCTIONS TO VISIBILITY.

AZZ001>003-036-222000-
NORTHWEST ARIZONA

CITY           SKY/WX    TMP DP  RH WIND       PRES   REMARKS
BULLHEAD CITY  SUNNY     54  10  17 SW6       30.16F
KINGMAN        SUNNY     47  12  24 SW25G35   30.10F
$$

AZZ004>008-015-016-018-222000-
NORTH CENTRAL ARIZONA

CITY           SKY/WX    TMP DP  RH WIND       PRES   REMARKS
GRAND CANYON   MOSUNNY   29   9  43 SW15G32   30.04F WCI  18
WILLIAMS       SUNNY     32   7  34 SW17G23   30.04F WCI  21
PRESCOTT       SUNNY     40   8  26 SW18      30.13F WCI  31
FLAGSTAFF      SUNNY     29   7  39 S21G32    30.04F WCI  16
PAYSON         SUNNY     39   7  26 W9G20     30.14F WCI  33
PAGE           SUNNY     40   7  25 VRB6      30.04F
$$

AZZ009>014-017-222000-
NORTHEAST ARIZONA

CITY           SKY/WX    TMP DP  RH WIND       PRES   REMARKS
WINSLOW        SUNNY     45   2  17 SW21G29   30.08F
SAINT JOHNS    SUNNY     40  12  32 SW22G28   30.09F WCI  30
WINDOW ROCK    MOSUNNY   32  11  41 SW18G25   30.06S WCI  20
SHOW LOW       SUNNY     34  16  47 S22       30.12F WCI  22
$$

AZZ540-542>544-546-548-222000-
GREATER PHOENIX AREA

CITY           SKY/WX    TMP DP  RH WIND       PRES   REMARKS
PHOENIX        MOSUNNY   56  10  16 VRB3      30.21F
BUCKEYE        SUNNY     54  23  30 SW3       30.23F
GLENDALE       SUNNY     55  12  18 SE3       30.24F
LUKE AFB       SUNNY     56  15  20 S7        30.21F
DEER VALLEY    SUNNY     53   6  15 SW8       30.21F
SCOTTSDALE     SUNNY     55  13  18 VRB6      30.23F
MESA-FALCON    SUNNY     55  10  16 SW7       30.23F
MESA-GATEWAY   SUNNY     55  10  16 W6        30.25S
CHANDLER       SUNNY     55  14  19 SW9       30.23F
$$

AZZ539-553-222000-
SOUTHWEST MARICOPA COUNTY AND PINAL COUNTY

CITY           SKY/WX    TMP DP  RH WIND       PRES   REMARKS
CASA GRANDE      N/A     56  22  26 S7        30.24F
GILA BEND      SUNNY     58  25  28 SW10      30.22F
$$

AZZ503-504-507>509-222000-
SOUTHEAST ARIZONA

CITY           SKY/WX    TMP DP  RH WIND       PRES   REMARKS
TUCSON         SUNNY     51  15  23 SE6       30.24F
DAVIS-MONTHAN  SUNNY     52  17  24 S5        30.22F
RYAN FIELD     SUNNY     52  18  25 CALM      30.25S
NOGALES        SUNNY     50  24  36 VRB3      30.19F
SIERRA VISTA   SUNNY     48  19  32 CALM      30.19F
DOUGLAS        SUNNY     51  18  27 W13G23    30.19F
SAFFORD        SUNNY     52  13  21 MISG      30.18F
$$

AZZ532-222000-
SOUTHWEST ARIZONA

CITY           SKY/WX    TMP DP  RH WIND       PRES   REMARKS
YUMA           SUNNY     58  31  35 W10       30.25S
$$

CAZ041-043-047-048-061-525>527-560>570-222000-
SOUTHERN CALIFORNIA

CITY           SKY/WX    TMP DP  RH WIND       PRES   REMARKS
DOWNTOWN L.A.  MOSUNNY   58  38  47 S5        30.23F
L.A. AIRPORT   MOSUNNY   56  39  53 W9        30.25S
SAN DIEGO      PTSUNNY   58  44  60 S9        30.29S
BURBANK        MOSUNNY   55  37  50 SE10      30.22F
ONTARIO        MOSUNNY   52  39  61 S7        30.24S
RIVERSIDE      PTSUNNY   53  38  56 VRB3      30.24S
PALM SPRINGS   FAIR      59  27  29 S8        30.20F
EL CENTRO NAS  SUNNY     62  28  27 S9          N/A
IMPERIAL       SUNNY     62  30  29 S12       30.22F
BLYTHE         SUNNY     58  31  35 VRB7      30.20F
NEEDLES        SUNNY     61  13  15 SW13G23   30.15F
$$

NVZ020-UTZ003-222000-
SOUTHERN NEVADA-UTAH

CITY           SKY/WX    TMP DP  RH WIND       PRES   REMARKS
LAS VEGAS      MOSUNNY   51  12  21 S10G26    30.05F
SALT LAKE CITY PTSUNNY   33  16  49 S7        29.97F WCI  27
$$

NMZ009-TXZ055-222000-
NEW MEXICO-WEST TEXAS

CITY           SKY/WX    TMP DP  RH WIND       PRES   REMARKS
ALBUQUERQUE    PTSUNNY   40  30  67 CALM      30.08F
EL PASO        MOSUNNY   56  27  32 W8        30.13F
$$


........................KEY........................
SKY/WX - SKY CONDITION/WEATHER
TMP    - TEMPERATURE IN FAHRENHEIT
DP     - DEW POINT IN FAHRENHEIT
RH     - RELATIVE HUMIDITY IN PERCENT
WIND   - DIRECTION AND SPEED IN MILES PER HOUR (MPH)
VRB    - VARIABLE WIND DIRECTION
PRES   - MEAN SEA LEVEL PRESSURE IN INCHES OF MERCURY
         F - FALLING PRESSURE   R - RISING PRESSURE
         S - STEADY PRESSURE
VSB    - VISIBILITY IN MILES
HX     - HEAT INDEX IN FAHRENHEIT
WCI    - WIND CHILL INDEX IN FAHRENHEIT
TC     - TEMPERATURE IN CELSIUS WHICH IS ALSO KNOWN AS
         TEMPERATURE IN CENTIGRADE
AFB    - AIR FORCE BASE
         LUKE AFB IS LUKE AIR FORCE BASE
         DAVIS-MONTHAN IS DAVIS-MONTHAN AIR FORCE BASE
NAS    - NAVAL AIR STATION
         EL CENTRO NAS IS EL CENTRO NAVAL AIR STATION
N/A    - NOT AVAILABLE





USA.gov is the U.S. government's official web portal to all federal, state and local government web resources and services.